SKYSAT-C6

Last updated on Mon Sep 15 2025 00:02:31 GMT+0000 (Coordinated Universal Time)

1 42992U 17068F 25257.10064385 .00008676 00000+0 29480-3 0 9998 2 42992 97.4225 28.4485 0002458 35.1742 324.9661 15.30712496440040
UTC large
Height (km)
Speed (km/s)
/
Latitude / Longitude
Inclination (degrees)
Orbital Period (minutes)
Azimuth
Elevation
Range (km)
Doppler Factor

Next 0 passes for location: London (51.5072 / 0.1276)

Sorry there are no passes over London.